Total_Precipitation_Accumulation
0.07 0.12 0.21 0.19 0.15 0.21 0.22 0.24 0.33 0.39 0.33 0.44 0.62 0.79 1.05 1.22 1.48 1.75 1.74 1.68 1.73 2.02 2.33 2.53 2.91 3.33 3.61 3.78 3.89 4.23 4.40 4.18 3.75 3.39 2.95 2.88 2.88 2.65 2.44 2.38 2.26 2.43 2.35 2.59
0.08 0.12 0.12 0.08 0.08 0.13 0.18 0.21 0.32 0.39 0.33 0.41 0.63 0.99 1.19 1.26 1.34 1.47 1.54 1.47 1.58 1.91 2.01 2.06 2.20 2.54 2.77 3.01 3.28 3.62 3.88 3.75 3.19 3.01 2.87 2.81 2.81 2.62 2.66 2.57 2.58 2.34 2.31 2.57
0.08 0.09 0.08 0.07 0.06 0.10 0.17 0.18 0.24 0.33 0.38 0.51 0.68 1.37 1.46 1.25 1.20 1.11 1.25 1.33 1.34 1.57 1.80 1.88 1.86 1.95 2.22 2.80 3.01 2.92 3.20 3.40 3.16 3.11 3.05 2.98 2.99 2.78 2.88 2.87 2.80 2.44 2.27 2.29
0.06 0.06 0.05 0.06 0.07 0.09 0.18 0.15 0.16 0.21 0.31 0.63 0.74 1.48 1.62 1.39 1.39 1.13 1.06 1.13 1.13 1.15 1.44 1.63 1.53 1.57 1.79 2.08 2.38 2.75 3.10 3.19 3.12 3.04 2.87 2.81 2.62 2.57 2.60 2.64 2.64 2.49 2.35 2.28
0.06 0.05 0.04 0.06 0.06 0.07 0.11 0.11 0.13 0.21 0.34 0.60 0.74 1.19 1.49 1.39 1.64 1.25 0.88 0.81 0.84 0.84 0.94 1.09 1.23 1.38 1.44 1.57 1.98 2.55 3.03 3.25 3.16 2.85 2.75 2.90 2.73 2.67 2.65 2.57 2.78 2.60 2.43 2.26
0.06 0.05 0.04 0.04 0.05 0.06 0.07 0.11 0.23 0.39 0.57 1.01 0.97 1.04 1.43 1.23 1.09 0.85 0.69 0.63 0.68 0.75 0.74 0.81 0.93 1.21 1.41 1.44 1.67 2.13 2.57 2.87 2.94 2.75 2.65 2.74 2.85 2.88 2.77 2.64 2.62 2.42 2.36 2.28
0.10 0.09 0.06 0.05 0.05 0.06 0.06 0.12 0.45 0.76 1.00 1.14 0.75 0.96 1.35 0.93 0.75 0.69 0.65 0.66 0.61 0.59 0.72 0.85 0.99 1.13 1.23 1.34 1.51 1.77 1.98 2.19 2.43 2.61 2.68 2.62 2.80 2.90 2.68 2.45 2.49 2.45 2.27 2.26
0.13 0.20 0.11 0.07 0.07 0.08 0.07 0.11 0.30 0.51 0.62 0.73 0.75 1.42 1.33 0.75 0.62 0.58 0.58 0.58 0.59 0.71 0.78 0.90 1.11 1.21 1.18 1.22 1.46 1.57 1.73 1.98 2.31 2.51 2.58 2.53 2.48 2.37 2.31 2.46 2.37 2.37 2.32 2.24
0.06 0.09 0.09 0.08 0.07 0.08 0.08 0.10 0.15 0.24 0.32 0.59 0.93 1.10 0.86 0.56 0.56 0.58 0.55 0.58 0.64 0.74 0.89 0.98 1.15 1.22 1.18 1.19 1.36 1.48 1.67 1.85 2.04 2.36 2.56 2.47 2.41 2.23 2.17 2.21 2.20 2.14 2.28 2.22
0.04 0.06 0.07 0.07 0.07 0.08 0.09 0.10 0.15 0.18 0.27 0.47 0.79 1.04 1.10 0.84 0.71 0.61 0.61 0.66 0.70 0.81 0.99 1.12 1.13 1.18 1.18 1.23 1.46 1.54 1.67 1.75 1.78 1.93 2.04 1.97 2.15 2.15 2.25 2.23 2.13 2.03 2.04 2.07
0.04 0.04 0.06 0.07 0.08 0.10 0.11 0.10 0.10 0.13 0.16 0.30 0.64 0.85 0.82 0.79 0.77 0.65 0.65 0.71 0.82 0.83 0.98 1.08 1.04 1.03 1.01 1.07 1.23 1.29 1.48 1.63 1.66 1.80 1.87 1.95 2.05 2.09 2.12 2.15 2.14 2.13 2.14 2.16
0.04 0.05 0.06 0.09 0.10 0.10 0.13 0.15 0.15 0.15 0.14 0.22 0.36 0.53 0.52 0.62 0.72 0.69 0.73 0.83 0.93 0.79 0.83 1.04 1.09 1.09 0.89 0.94 1.04 1.16 1.38 1.58 1.66 1.86 1.99 2.02 2.14 2.18 2.11 2.15 2.35 2.35 2.31 2.29
0.04 0.05 0.09 0.16 0.20 0.15 0.11 0.12 0.16 0.16 0.16 0.17 0.27 0.46 0.47 0.54 0.65 0.66 0.78 0.91 0.90 0.85 0.84 0.99 1.10 1.00 0.90 0.89 0.95 1.00 1.16 1.37 1.51 1.67 1.86 2.12 2.14 2.19 2.37 2.55 2.70 2.72 2.60 2.53
0.04 0.04 0.09 0.18 0.27 0.30 0.24 0.16 0.16 0.17 0.18 0.17 0.21 0.38 0.48 0.64 0.74 0.74 0.82 0.96 0.87 0.80 0.79 0.83 1.01 1.03 0.94 0.90 0.91 0.95 1.11 1.28 1.47 1.78 2.02 2.22 2.44 2.61 2.76 2.77 2.85 2.85 2.81 2.78
0.03 0.03 0.04 0.08 0.13 0.19 0.20 0.16 0.15 0.14 0.13 0.16 0.21 0.37 0.48 0.58 0.71 0.79 0.83 0.80 0.80 0.78 0.81 0.92 1.04 1.19 1.20 1.12 1.03 1.05 1.29 1.52 1.78 2.08 2.23 2.30 2.42 2.62 2.91 3.17 3.15 3.05 2.96 2.83
0.06 0.05 0.06 0.08 0.12 0.15 0.13 0.13 0.13 0.11 0.11 0.14 0.21 0.36 0.48 0.60 0.67 0.62 0.66 0.68 0.74 0.84 0.91 1.06 1.22 1.35 1.46 1.49 1.46 1.49 1.65 1.95 2.24 2.52 2.66 2.81 2.93 3.07 3.22 3.31 3.37 3.43 3.37 3.29
0.17 0.17 0.16 0.15 0.16 0.18 0.16 0.16 0.15 0.14 0.15 0.18 0.25 0.36 0.51 0.66 0.66 0.74 0.77 0.80 0.87 0.94 1.07 1.21 1.31 1.42 1.56 1.61 1.68 1.87 2.05 2.28 2.50 2.66 2.78 2.90 3.02 3.22 3.39 3.47 3.53 3.40 3.38 3.36
0.37 0.34 0.28 0.23 0.29 0.33 0.23 0.26 0.27 0.30 0.32 0.35 0.38 0.45 0.56 0.69 0.72 0.87 0.96 0.94 0.90 1.01 1.19 1.25 1.34 1.44 1.56 1.70 1.86 2.06 2.21 2.31 2.62 2.83 2.92 2.99 3.05 3.15 3.37 3.60 3.54 3.41 3.41 3.37
0.44 0.52 0.48 0.38 0.37 0.39 0.40 0.35 0.36 0.48 0.60 0.54 0.67 0.76 0.73 0.79 0.88 0.96 0.98 1.16 1.18 1.13 1.21 1.28 1.39 1.47 1.61 1.68 1.75 1.76 1.90 2.12 2.36 2.57 2.75 2.77 2.92 3.11 3.23 3.28 3.32 3.45 3.46 3.27
0.37 0.43 0.52 0.54 0.57 0.57 0.58 0.53 0.42 0.50 0.90 0.86 0.94 1.03 0.99 1.05 1.32 1.25 0.98 1.01 1.18 1.19 1.19 1.31 1.46 1.53 1.52 1.58 1.65 1.73 1.89 2.11 2.31 2.52 2.72 2.89 3.04 3.21 3.26 3.31 3.47 3.56 3.55 3.52
0.59 0.60 0.59 0.61 0.68 0.67 0.58 0.52 0.55 0.95 1.26 1.20 1.28 1.29 1.20 1.25 1.34 1.29 1.10 1.04 1.05 1.10 1.13 1.24 1.43 1.60 1.61 1.60 1.80 2.01 2.16 2.29 2.45 2.58 2.68 2.82 3.01 3.25 3.53 3.73 3.67 3.67 3.66 3.58
0.82 0.84 0.82 0.85 1.06 1.19 0.86 0.80 1.06 1.26 0.99 1.05 1.26 1.48 1.49 1.43 1.35 1.29 1.20 1.15 1.07 1.02 1.09 1.29 1.45 1.60 1.74 1.84 2.01 2.22 2.26 2.32 2.52 2.74 2.84 2.93 3.13 3.21 3.39 3.66 3.67 3.59 3.60 3.50
0.96 1.06 1.18 1.23 1.40 1.27 1.07 1.08 1.03 1.11 1.28 1.34 1.44 1.66 1.71 1.57 1.44 1.47 1.43 1.33 1.24 1.15 1.16 1.30 1.46 1.63 1.73 1.92 2.12 2.28 2.36 2.45 2.58 2.72 2.90 3.11 3.25 3.34 3.46 3.61 3.68 3.66 3.59 3.42
1.03 0.88 1.11 1.43 1.57 1.38 1.23 1.19 1.14 1.20 1.39 1.47 1.45 1.49 1.54 1.53 1.48 1.64 1.70 1.59 1.56 1.52 1.46 1.47 1.55 1.67 1.78 1.84 2.05 2.25 2.39 2.45 2.59 2.69 2.79 2.98 3.15 3.32 3.50 3.50 3.33 3.18 3.03 2.95
1.13 1.15 1.36 1.78 1.94 1.84 1.63 1.47 1.37 1.39 1.36 1.44 1.39 1.41 1.43 1.48 1.51 1.60 1.75 1.79 1.75 1.67 1.58 1.61 1.69 1.81 1.84 1.86 1.93 2.18 2.40 2.49 2.54 2.70 2.78 2.80 2.84 2.95 3.13 3.20 3.13 2.97 2.79 2.65
1.27 1.50 1.89 2.31 2.23 2.30 2.12 1.74 1.54 1.60 1.58 1.53 1.49 1.56 1.60 1.60 1.60 1.64 1.80 1.85 1.83 1.76 1.71 1.72 1.77 1.83 1.85 1.95 2.05 2.15 2.45 2.73 2.81 2.78 2.65 2.59 2.54 2.55 2.64 2.66 2.68 2.80 2.66 2.66